Weather History for Topeka Forbes, KS

Change the Weather History Date:

Tuesday, October 30, 2012

  Actual Average Record
Temperature  
Mean Temperature 48 °F -  
Max Temperature 59 °F 61 °F 90 °F (1950)
Min Temperature 37 °F 41 °F 23 °F (1993)
Degree Days  
Heating Degree Days 17    
Moisture  
Dew Point 31 °F    
Average Humidity 56    
Maximum Humidity 73    
Minimum Humidity 36    
Precipitation  
Precipitation 0.00 in - - ()
Sea Level Pressure  
Sea Level Pressure 30.03 in    
Wind  
Wind Speed 8 mph (ESE)    
Max Wind Speed 15 mph    
Max Gust Speed -    
Visibility 10 miles    
Events      
Averages and records for this station are not official NWS values.
T = Trace of Precipitation, MM = Missing Value Source: NWS Daily Summary

Daily Weather History Graph

Daily Weather History Graph

Search for Another Location

Airport:

Trip Planner

Search our weather history database for the weather conditions in past years. The results will help you decide how hot, cold, wet, or windy it might be!

Date:

Astronomy

Oct. 30, 2012 Rise Set
Actual Time 7:48 AM CDT 6:23 PM CDT
Civil Twilight 7:20 AM CDT 6:51 PM CDT
Nautical Twilight 6:49 AM CDT 7:22 PM CDT
Astronomical Twilight 6:18 AM CDT 7:53 PM CDT
Moon 6:54 PM CDT (10/30) 8:35 AM CDT (10/30)
Length of Visible Light 11h 30m
Length of Day
10h 35m
Full, 99% of the Moon is Illuminated
Oct 30
Full
Nov 6
Last Quarter
Nov 13
New
Nov 20
First Quarter
Nov 28
Full

Hourly Weather History & Observations

Time (CDT) Temp. Windchill Dew Point Humidity Pressure Visibility Wind Dir Wind Speed Gust Speed Precip Events Conditions
12:53 AM 41.0 °F 37.1 °F 30.9 °F 67% 30.09 in 10.0 mi SE 5.8 mph - N/A   Clear
2:53 AM 39.9 °F 35.1 °F 30.0 °F 68% 30.08 in 10.0 mi ESE 6.9 mph - N/A   Clear
3:53 AM 39.0 °F 33.4 °F 30.9 °F 73% 30.05 in 10.0 mi SE 8.1 mph - N/A   Clear
4:53 AM 39.0 °F 32.8 °F 30.0 °F 70% 30.04 in 10.0 mi ESE 9.2 mph - N/A   Clear
6:53 AM 39.9 °F 34.5 °F 30.0 °F 68% 30.03 in 10.0 mi ESE 8.1 mph - N/A   Clear
7:53 AM 39.9 °F 34.5 °F 30.9 °F 70% 30.03 in 10.0 mi ESE 8.1 mph - N/A   Clear
8:53 AM 42.1 °F 36.1 °F 30.9 °F 65% 30.03 in 10.0 mi ESE 10.4 mph - N/A   Clear
9:53 AM 45.0 °F 40.1 °F 30.9 °F 58% 30.04 in 10.0 mi ESE 9.2 mph - N/A   Mostly Cloudy
10:53 AM 48.0 °F - 30.9 °F 52% 30.03 in 10.0 mi ESE 8.1 mph - N/A   Overcast
11:53 AM 52.0 °F - 30.9 °F 45% 30.02 in 10.0 mi SE 10.4 mph - N/A   Scattered Clouds
12:53 PM 54.0 °F - 33.1 °F 45% 30.01 in 10.0 mi East 15.0 mph - N/A   Partly Cloudy
1:53 PM 55.0 °F - 32.0 °F 42% 29.99 in 10.0 mi East 13.8 mph - N/A   Clear
2:53 PM 57.9 °F - 32.0 °F 37% 29.99 in 10.0 mi East 11.5 mph - N/A   Clear
3:53 PM 59.0 °F - 32.0 °F 36% 29.98 in 10.0 mi East 8.1 mph - N/A   Clear
4:53 PM 57.0 °F - 30.0 °F 36% 29.99 in 10.0 mi ESE 8.1 mph - N/A   Scattered Clouds
5:53 PM 55.9 °F - 30.0 °F 37% 29.98 in 10.0 mi East 8.1 mph - N/A   Mostly Cloudy
7:53 PM 51.1 °F - 28.9 °F 43% 30.01 in 10.0 mi East 3.5 mph - N/A   Clear
8:53 PM 44.1 °F 42.5 °F 30.0 °F 58% 30.03 in 10.0 mi NNE 3.5 mph - N/A   Clear
9:53 PM 44.1 °F - 30.0 °F 58% 30.03 in 10.0 mi Calm Calm - N/A   Clear
10:53 PM 37.9 °F - 28.9 °F 70% 30.04 in 10.0 mi Calm Calm - N/A   Clear
11:53 PM 37.0 °F - 28.9 °F 73% 30.04 in 10.0 mi Calm Calm - N/A   Clear